Lid_Strength_Index
3 2 2 2 1 1 1 1 1 0 0 0 1 1 1 0 -0 -1 -1 -2 -1 -1 -1 -1 -1 -1 -0 -0 -0 -0 0 1 -0 1 1 1 -0 -0 -0 -1 -1 -1 -1
4 3 2 2 2 1 1 1 1 0 0 0 0 0 0 -0 -0 -1 -1 -1 -1 -1 -1 -1 -1 -1 -0 -0 -0 -0 1 1 0 2 2 4 2 1 0 0 -0 -0 -1
4 3 3 2 2 2 1 1 1 0 0 -0 -0 -0 -0 -0 0 0 -0 -1 -1 -1 -1 -1 -1 -1 -1 -0 -0 -0 0 2 1 0 2 5 5 3 1 1 1 -0 0
4 3 3 3 3 2 1 1 1 0 0 -0 0 1 1 2 1 0 -0 -0 -1 -1 -1 -1 -1 -1 -0 -0 -1 -0 0 0 2 1 0 1 1 3 4 2 1 0 1
4 3 3 2 2 2 2 1 1 1 0 0 0 1 1 1 0 0 0 -0 -1 -1 -1 -1 -1 -1 -0 -0 -0 -0 -0 0 1 1 1 1 1 1 3 6 3 1 1
3 3 2 2 2 1 1 1 1 1 0 0 0 1 1 1 1 1 1 1 0 -0 -1 -1 -1 -2 -1 -1 -0 -1 -0 -0 0 0 1 1 2 2 2 5 3 2 2
3 3 3 3 2 2 2 1 1 1 1 1 1 0 1 0 1 1 1 1 1 0 -0 -1 -1 -0 -1 -1 -1 -0 -0 -0 0 0 1 0 1 1 1 2 4 3 2
3 3 3 3 2 2 2 1 1 1 1 1 1 0 0 1 1 0 0 1 1 0 -1 -1 -1 -1 -1 -1 -1 -0 -0 -0 0 -0 0 0 -0 0 0 2 3 3 2
4 3 3 2 2 2 2 2 1 1 1 1 1 1 0 0 0 0 -0 0 -0 -0 -1 -1 -1 -1 -1 -1 -1 -0 -0 -0 -0 -0 -0 0 -0 -0 0 1 2 3 4
4 4 3 3 2 2 1 1 1 1 1 1 1 1 0 0 0 -0 0 0 -0 -0 -0 -0 -0 -0 -1 -1 -1 -0 -0 -0 0 0 0 0 0 -0 -0 0 1 3 3
3 3 3 2 2 2 2 2 1 1 1 1 1 1 1 0 0 0 0 -0 -0 -0 -0 -0 -0 -0 -0 -0 -0 -0 -0 0 0 -0 0 0 -0 0 0 0 1 2 3
4 3 3 2 2 2 2 2 1 1 1 1 1 1 0 0 1 0 0 -0 0 -0 -0 -0 -0 -0 -0 -0 0 0 -0 0 1 0 0 0 0 0 -0 0 0 1 1
4 3 3 3 3 2 2 2 1 1 1 1 1 1 1 1 1 1 0 -0 0 -0 -0 -0 0 0 0 -0 -0 -0 0 0 0 0 0 0 0 1 1 0 1 1 1
5 4 4 4 3 2 2 2 2 1 1 1 1 1 1 1 1 0 0 0 -0 0 -0 0 0 0 -0 -0 -0 -0 0 0 0 0 0 0 0 1 1 1 1 0 1
5 4 4 4 3 3 2 2 1 1 1 1 1 1 1 1 0 0 0 0 -0 0 1 1 1 0 0 0 0 0 0 0 1 0 -0 -0 -0 0 0 1 1 0 1
5 4 4 4 3 3 2 2 2 1 1 1 1 1 1 1 1 1 1 0 1 1 2 2 1 0 0 1 2 0 0 0 0 1 0 -0 0 1 2 2 0 0 1
5 4 4 4 3 3 2 2 2 1 1 1 1 1 1 1 1 0 1 1 1 1 1 1 1 0 0 2 2 1 0 0 0 0 0 0 0 -0 -0 2 2 2 1
5 5 4 3 3 4 3 3 1 1 1 1 1 1 1 1 1 1 1 1 1 1 2 2 2 1 1 3 3 2 0 1 0 0 0 0 0 -0 0 0 1 0 -0
5 5 4 3 2 2 3 3 3 3 3 2 2 1 1 1 1 1 1 1 2 3 2 1 2 1 1 4 4 2 0 1 1 0 -0 -0 0 2 3 0 1 1 0
5 4 4 4 4 1 2 2 2 2 2 2 1 1 1 1 1 1 1 1 1 2 1 1 1 2 1 4 5 3 1 1 1 0 0 2 0 5 5 0 1 2 1
5 4 4 4 4 2 1 2 2 2 1 1 1 1 1 1 1 1 1 1 1 1 3 2 1 1 1 1 6 6 1 1 1 1 1 0 4 6 6 4 1 3 1
5 5 5 4 3 2 1 2 2 1 1 1 1 1 1 1 1 1 1 1 1 2 2 2 2 1 0 4 6 6 5 2 1 1 1 0 6 7 7 5 4 5 3
5 5 5 5 3 3 2 2 1 1 1 1 1 1 1 1 1 1 1 2 1 2 2 2 2 2 1 1 6 7 6 5 1 0 1 4 7 7 6 6 6 6 2
6 5 5 4 4 3 2 2 2 1 1 1 1 1 1 1 1 1 1 2 2 2 2 2 3 2 2 1 1 0 3 4 2 3 1 2 3 5 4 4 5 2 1
5 5 5 5 4 3 3 2 2 1 1 1 1 1 1 1 1 1 1 1 1 2 2 2 3 2 2 2 3 2 1 1 2 2 1 1 1 1 3 3 2 1 1
5 5 5 5 4 4 3 1 1 1 2 2 2 2 1 1 1 2 2 4 7 9 11 12 7 2 6 11 12 11 11 10 9 2 2 2 2 2 2 3 2 1 2